CZ-2D DEB, 38327

Orbit data source: Space-Track

CZ-2D DEB, 38327 is space debris in SSO originally from a launch on Sun, 20 Nov 2011 UTC launched from the Jiuquan Satellite Launch Center, China (JSC). Debris objects in space refer to the collection of defunct objects orbiting the Earth. Examples of debris include non-operational satellites, rocket bodies, and fragments generated from explosions, collisions, or faulty payload assembly.

Loading next visibility...
Identifier
38327, 2011-068J
Orbit
SSO
Country
Flag of CNCN / PRC
Related business
Manufacturer
Unknown
Mission
Spacecraft
Bus & Motor
Unknown
Mass
Unknown
Launch date (UTC)
2011-11-20 (14 years ago)
Launch vehicle
Unknown
Launch site
Jiuquan Satellite Launch Center, China (JSC)
Object type
Payload
Rocket body
Debris
Shape & HBR
Unknown shape, 0.1 m
Radar Cross Section
Small (<0.1 m²)

Expand to show TLE details & history
Last TLE update: 1 day ago

TLE from 1 day ago
0 CZ-2D DEB
1 38327U 11068J   26094.52356027  .00001093  00000-0  72083-3 0  9996
2 38327  98.6887 183.4931 0200063 140.4236 237.7001 13.94336772726012
Epoch: 2026-04-04T12:33Z
TLE epoch observation values (Epoch: 2026-04-04T12:33:55.607Z)
Latitude
16.00193°
Longitude
159.67045°
Altitude
995.708 km
Speed
7.315 km/s
True Right ascension
12h 03m 58s
True Declination
15° 54' 50"
Sunlit
Object was in full shadow at epoch
Visualization orbit readout
Latitude
Unknown
Longitude
Unknown
Altitude
Unknown
Speed
Unknown
Apparent Right ascension
Unknown
Apparent Declination
Unknown
Sunlit
N/A
Visualization observer readout
Local Sidereal Time
21:58:53
Azimuth
Unknown
Elevation
Unknown
Doppler factor
Unknown
Orbital elements
Apogee altitude
1,056.485 km
Perigee altitude
764.841 km
Semi-major axis
7,288.8 km
Eccentricity
0.02001
Inclination
98.6887°
RAAN
183.4931°
Arg. of periapsis
140.4236°
True anomaly
235.78821°
Mean anomaly
237.7001°
Eccentric anomaly
236.74158°
Mean motion
3.48786 °/min
Orbital period
103.22 mins
BSTAR
0.00072083
Loading maneuver chart data...
Computing Atmospheric mass density...
Loading historical data...
Loading historical data...
Loading historical data...
Loading historical data...
Loading historical data...
Loading historical data...
Loading historical data...

Documentation

Showing up to 5 results
|